Location: Newark
(25.4297°S, 49.2719°W)
Time: 07:31:12
(UTC+00:00)

Vanguard 1 Rocket - Pass Details

Date: 20 November 2019
Orbit: 650 x 4226 km, 34.3° (Epoch: 12 December)

Event Time Altitude Azimuth Distance (km) Brightness Sun altitude
Rises 12:39:13 0° 360° (N) 5,182 11.3 56.5°
Reaches altitude 10° 12:44:05 10° 19° (NNE) 4,800 11.4 57.6°
Maximum altitude 12:52:39 18° 56° (NE) 5,124 11.9 59.5°
Drops below altitude 10° 13:04:10 10° 90° (E) 6,739 12.4 62.1°
Sets 13:13:17 0° 105° (ESE) 8,258 12.6 64.2°
